Torna al catalogo

STARLINK-5418

AttivoComunicazioniVLEO
NORAD 54852·PAYLOAD·🇺🇸 United States

Lanciato Dec 28, 2022 da Cape Canaveral Space Force Station

Loading…

Prossimi Passaggi (prossime 24 ore)

TLE

AggiornatoSource: CelesTrak SupGP

Epoca: Sep 14, 2026, 22:28 UTC

1 54852C 22177AJ  26257.93659722 -.00005746  00000+0 -20814-3 0  2576
2 54852  43.0022 132.4572 0001788 268.1938 238.8390 15.27575700    15

Traccia STARLINK-5418 in tempo reale con AllMySat

Download on the App Store